Tillbaka till svenska Fidonet
English   Information   Debug  
FILM   0/18
FNEWS_PUBLISH   4926
FN_SYSOP   42201
FN_SYSOP_OLD1   71952
FTP_FIDO   0/2
FTSC_PUBLIC   0/13973
FUNNY   0/4886
GENEALOGY.EUR   0/71
GET_INFO   105
GOLDED   0/408
HAM   5326/16661
HOLYSMOKE   0/6791
HOT_SITES   0/1
HTMLEDIT   0/71
HUB203   466
HUB_100   264
HUB_400   39
HUMOR   0/29
IC   0/2851
INTERNET   0/424
INTERUSER   0/3
IP_CONNECT   719
JAMNNTPD   0/233
JAMTLAND   0/47
KATTY_KORNER   0/41
LAN   0/16
LINUX-USER   0/19
LINUXHELP   0/1155
LINUX   0/22300
LINUX_BBS   0/957
mail   18.68
mail_fore_ok   249
MENSA   0/341
MODERATOR   0/102
MONTE   0/992
MOSCOW_OKLAHOMA   0/1245
MUFFIN   0/783
MUSIC   0/321
N203_STAT   938
N203_SYSCHAT   313
NET203   321
NET204   69
NET_DEV   0/10
NORD.ADMIN   0/101
NORD.CHAT   0/2572
NORD.FIDONET   189
NORD.HARDWARE   0/28
NORD.KULTUR   0/114
NORD.PROG   0/32
NORD.SOFTWARE   0/88
NORD.TEKNIK   0/58
NORD   0/453
OCCULT_CHAT   0/93
OS2BBS   0/787
OS2DOSBBS   0/580
OS2HW   0/42
OS2INET   0/37
OS2LAN   0/134
OS2PROG   0/36
OS2REXX   0/113
OS2USER-L   207
OS2   0/4830
OSDEBATE   0/18996
PASCAL   0/490
PERL   0/457
PHP   0/45
POINTS   0/405
POLITICS   0/29554
POL_INC   0/14731
PSION   103
R20_ADMIN   1133
R20_AMATORRADIO   0/2
R20_BEST_OF_FIDONET   16
R20_CHAT   0/896
R20_DEPP   0/3
R20_DEV   400
R20_ECHO2   1833
R20_ECHOPRES   0/35
R20_ESTAT   0/719
R20_FIDONETPROG...
...RAM.MYPOINT
  0/2
R20_FIDONETPROGRAM   0/22
R20_FIDONET   0/248
R20_FILEFIND   0/24
R20_FILEFOUND   0/22
R20_HIFI   0/3
R20_INFO2   3725
R20_INTERNET   0/12940
R20_INTRESSE   0/60
R20_INTR_KOM   0/99
R20_KANDIDAT.CHAT   42
R20_KANDIDAT   28
R20_KOM_DEV   112
R20_KONTROLL   0/13360
R20_KORSET   0/18
R20_LOKALTRAFIK   0/24
R20_MODERATOR   0/1852
R20_NC   76
R20_NET200   245
R20_NETWORK.OTH...
...ERNETS
  0/13
R20_OPERATIVSYS...
...TEM.LINUX
  0/44
R20_PROGRAMVAROR   0/1
R20_REC2NEC   534
R20_SFOSM   0/341
R20_SF   0/108
R20_SPRAK.ENGLISH   0/1
R20_SQUISH   107
R20_TEST   2
R20_WORST_OF_FIDONET   20
RAR   0/9
RA_MULTI   106
RA_UTIL   0/162
REGCON.EUR   0/2068
REGCON   0/13
SCIENCE   0/1206
SF   0/239
SHAREWARE_SUPPORT   0/5146
SHAREWRE   0/14
SIMPSONS   0/169
STATS_OLD1   0/2539.065
STATS_OLD2   0/2530
STATS_OLD3   0/2395.095
STATS_OLD4   0/1692.25
SURVIVOR   0/495
SYSOPS_CORNER   0/3
SYSOP   0/84
TAGLINES   0/112
TEAMOS2   0/4530
TECH   0/2617
TEST.444   0/105
TRAPDOOR   0/19
TREK   0/755
TUB   0/290
UFO   0/40
UNIX   0/1316
USA_EURLINK   0/102
USR_MODEMS   0/1
VATICAN   0/2740
VIETNAM_VETS   0/14
VIRUS   0/378
VIRUS_INFO   0/201
VISUAL_BASIC   0/473
WHITEHOUSE   0/5187
WIN2000   0/101
WIN32   0/30
WIN95   0/4291
WIN95_OLD1   0/70272
WINDOWS   0/1517
WWB_SYSOP   0/419
WWB_TECH   0/810
ZCC-PUBLIC   0/1
ZEC   4

 
4DOS   0/134
ABORTION   0/7
ALASKA_CHAT   0/506
ALLFIX_FILE   0/1313
ALLFIX_FILE_OLD1   0/7997
ALT_DOS   0/152
AMATEUR_RADIO   0/1039
AMIGASALE   0/14
AMIGA   0/331
AMIGA_INT   0/1
AMIGA_PROG   0/20
AMIGA_SYSOP   0/26
ANIME   0/15
ARGUS   0/924
ASCII_ART   0/340
ASIAN_LINK   0/651
ASTRONOMY   0/417
AUDIO   0/92
AUTOMOBILE_RACING   0/105
BABYLON5   0/17862
BAG   135
BATPOWER   0/361
BBBS.ENGLISH   0/382
BBSLAW   0/109
BBS_ADS   267/5290
BBS_INTERNET   0/507
BIBLE   0/3563
BINKD   0/1119
BINKLEY   0/215
BLUEWAVE   0/2173
CABLE_MODEMS   0/25
CBM   0/46
CDRECORD   0/66
CDROM   0/20
CLASSIC_COMPUTER   0/378
COMICS   0/15
CONSPRCY   0/899
COOKING   41467
COOKING_OLD1   0/24719
COOKING_OLD2   0/40862
COOKING_OLD3   0/37489
COOKING_OLD4   0/35496
COOKING_OLD5   9370
C_ECHO   0/189
C_PLUSPLUS   0/31
DIRTY_DOZEN   0/201
DOORGAMES   0/2292
DOS_INTERNET   0/196
duplikat   6102
ECHOLIST   0/18295
EC_SUPPORT   0/318
ELECTRONICS   0/359
ELEKTRONIK.GER   1534
ENET.LINGUISTIC   0/13
ENET.POLITICS   0/4
ENET.SOFT   0/11701
ENET.SYSOP   34296
ENET.TALKS   0/32
ENGLISH_TUTOR   0/2000
EVOLUTION   0/1335
FDECHO   0/217
FDN_ANNOUNCE   0/7068
FIDONEWS   25062
FIDONEWS_OLD1   0/49742
FIDONEWS_OLD2   0/35949
FIDONEWS_OLD3   0/30874
FIDONEWS_OLD4   0/37224
FIDO_SYSOP   12922
FIDO_UTIL   0/180
FILEFIND   0/209
FILEGATE   0/212
Möte HAM, 16661 texter
 lista första sista föregående nästa
Text 4383, 908 rader
Skriven 2011-03-17 22:31:26 av Amsat List (1:323/120.0)
Ärende: [keps]  orb11076.amsa
=============================
[keps]  orb11076.amsa

Return-Path: <keps-bounces@amsat.org>
X-Rcpt: craig.healy@chowda.com
X-UIDL: 1300417360.3954

SB KEPS @ AMSAT  $ORB11076.O
Orbital Elements  11076.OSCAR

HR AMSAT ORBITAL ELEMENTS FOR OSCAR SATELLITES
FROM WA5QGD FORT WORTH,TX March 17, 2011
Send Subscribe/unsubscribe to KEPS at http://www.amsat.org/mailman/listinfo/kep
BID: ORB11076.O
TO ALL RADIO AMATEURS BT

Satellite: AO-07
Catalog number: 07530
Epoch time:      11075.58113605
Element set:    0031
Inclination:      101.3958 deg
RA of node:       085.7740 deg
Eccentricity:    0.0012088
Arg of perigee:   100.9648 deg
Mean anomaly:     259.2784 deg
Mean motion:   12.53581500 rev/day
Decay rate:       -2.7e-07 rev/day^2
Epoch rev:           66258
Checksum:              289

Satellite: FO-29
Catalog number: 24278
Epoch time:      11076.87422025
Element set:     526
Inclination:      098.5316 deg
RA of node:       233.3681 deg
Eccentricity:    0.0351160
Arg of perigee:   133.8676 deg
Mean anomaly:     229.2049 deg
Mean motion:   13.52958328 rev/day
Decay rate:        2.2e-07 rev/day^2
Epoch rev:           72011
Checksum:              300

Satellite: SO-33
Catalog number: 25509
Epoch time:      11075.28128155
Element set:    0927
Inclination:      031.4323 deg
RA of node:       049.7665 deg
Eccentricity:    0.0353651
Arg of perigee:   149.1844 deg
Mean anomaly:     213.0054 deg
Mean motion:   14.28376098 rev/day
Decay rate:       2.78e-06 rev/day^2
Epoch rev:           64698
Checksum:              321

Satellite: RS-22
Catalog number: 27939
Epoch time:      11076.61068718
Element set:      82
Inclination:      097.8589 deg
RA of node:       294.9279 deg
Eccentricity:    0.0012539
Arg of perigee:   277.1413 deg
Mean anomaly:     082.8353 deg
Mean motion:   14.63528497 rev/day
Decay rate:       2.12e-06 rev/day^2
Epoch rev:           39894
Checksum:              355

Satellite: VO-52
Catalog number: 28650
Epoch time:      11075.86706574
Element set:    0745
Inclination:      097.6544 deg
RA of node:       123.0847 deg
Eccentricity:    0.0028207
Arg of perigee:   103.6798 deg
Mean anomaly:     256.7512 deg
Mean motion:   14.81944252 rev/day
Decay rate:       2.81e-06 rev/day^2
Epoch rev:           31707
Checksum:              321

Satellite: SO-67
Catalog number: 35870
Epoch time:      11076.83862192
Element set:     655
Inclination:      097.2937 deg
RA of node:       123.1669 deg
Eccentricity:    0.0002088
Arg of perigee:   185.5058 deg
Mean anomaly:     290.1563 deg
Mean motion:   15.21457594 rev/day
Decay rate:      2.213e-05 rev/day^2
Epoch rev:            8305
Checksum:              323

Satellite: HO-68
Catalog number: 36122
Epoch time:      11076.72517019
Element set:     202
Inclination:      100.4268 deg
RA of node:       138.8870 deg
Eccentricity:    0.0008095
Arg of perigee:   074.4036 deg
Mean anomaly:     285.7972 deg
Mean motion:   13.16284740 rev/day
Decay rate:       -4.4e-07 rev/day^2
Epoch rev:            6020
Checksum:              285

/EX
SB KEPS @ AMSAT  $ORB11076.D
Orbital Elements  11076.MICROS

HR AMSAT ORBITAL ELEMENTS FOR THE MICROSATS
FROM WA5QGD FORT WORTH,TX March 17, 2011
Send Subscribe/unsubscribe to KEPS at http://www.amsat.org/mailman/listinfo/kep
BID: ORB11076.D
TO ALL RADIO AMATEURS BT

Satellite: UO-11
Catalog number: 14781
Epoch time:      11076.86430711
Element set:     497
Inclination:      098.0157 deg
RA of node:       133.8166 deg
Eccentricity:    0.0010200
Arg of perigee:   075.7465 deg
Mean anomaly:     284.4871 deg
Mean motion:   14.79909928 rev/day
Decay rate:       3.49e-06 rev/day^2
Epoch rev:           45228
Checksum:              322

Satellite: AO-16
Catalog number: 20439
Epoch time:      11076.83286125
Element set:     142
Inclination:      098.3731 deg
RA of node:       029.5522 deg
Eccentricity:    0.0011923
Arg of perigee:   074.3947 deg
Mean anomaly:     285.8555 deg
Mean motion:   14.31901889 rev/day
Decay rate:       1.14e-06 rev/day^2
Epoch rev:           10454
Checksum:              300

Satellite: LO-19
Catalog number: 20442
Epoch time:      11075.87872685
Element set:    0061
Inclination:      098.3360 deg
RA of node:       033.3432 deg
Eccentricity:    0.0012841
Arg of perigee:   072.4029 deg
Mean anomaly:     287.8558 deg
Mean motion:   14.32128772 rev/day
Decay rate:        2.4e-07 rev/day^2
Epoch rev:           10458
Checksum:              296

Satellite: AO-27
Catalog number: 22825
Epoch time:      11075.88738111
Element set:     771
Inclination:      098.5221 deg
RA of node:       022.2864 deg
Eccentricity:    0.0008257
Arg of perigee:   181.4428 deg
Mean anomaly:     178.6728 deg
Mean motion:   14.29332250 rev/day
Decay rate:       1.68e-06 rev/day^2
Epoch rev:           91100
Checksum:              301

Satellite: IO-26
Catalog number: 22826
Epoch time:      11076.88354674
Element set:     512
Inclination:      098.5160 deg
RA of node:       023.7662 deg
Eccentricity:    0.0008810
Arg of perigee:   172.9766 deg
Mean anomaly:     187.1541 deg
Mean motion:   14.29592423 rev/day
Decay rate:       1.14e-06 rev/day^2
Epoch rev:           91126
Checksum:              309

Satellite: GO-32
Catalog number: 25397
Epoch time:      11075.81376805
Element set:     430
Inclination:      098.3228 deg
RA of node:       073.3362 deg
Eccentricity:    0.0001444
Arg of perigee:   144.0447 deg
Mean anomaly:     216.0832 deg
Mean motion:   14.23199584 rev/day
Decay rate:        8.6e-07 rev/day^2
Epoch rev:           65882
Checksum:              305

